SCP
0 0 0 0 0 0 0 0 0 0 0 0 0 0 0 0 0 0 0 0 0 0 0 0 0 0 0 0 0 0 0 0 0 0 0 0 0 0 0 0 0 0 0 0
0 0 0 0 0 0 0 0 0 0 0 0 0 0 0 0 0 0 0 0 0 0 0 0 0 0 0 0 0 0 0 0 0 0 0 0 0 0 0 0 0 0 0 0
0 0 0 0 0 0 0 0 0 0 0 0 0 0 0 0 0 0 0 0 0 0 0 0 0 0 0 0 0 0 0 0 0 0 0 0 0 0 0 0 0 0 0 0
0 0 0 0 0 0 0 0 0 0 0 0 0 0 0 0 0 0 0 0 0 0 0 0 0 0 0 0 0 0 0 0 0 0 0 0 0 0 0 0 0 0 0 0
0 0 0 0 0 0 0 0 0 0 0 0 0 0 0 0 0 0 0 0 0 0 0 0 0 0 0 0 0 0 0 0 0 0 0 0 0 0 -0 -0 0 0 0 0
0 0 0 0 0 0 0 0 0 0 0 0 0 0 0 0 0 0 0 0 0 0 0 0 0 0 0 0 0 0 0 0 0 0 0 0 0 0 -0 -0 0 0 0 0
0 0 0 0 0 0 0 0 0 0 0 0 0 0 0 0 0 0 0 0 0 0 0 0 0 0 0 0 0 0 0 0 0 0 0 0 0 0 -0 -0 0 0 0 0
0 0 0 0 0 0 0 0 0 0 0 0 0 0 0 0 0 0 0 0 0 0 0 0 0 0 0 0 0 0 0 0 0 0 0 0 0 0 -0 -0 0 0 0 0
0 0 0 0 0 0 0 0 0 0 0 0 0 0 0 0 0 0 0 0 0 0 0 0 0 0 0 0 0 0 0 0 0 0 0 0 -0 -0 -0 -0 0 0 0 -0
0 0 0 0 0 0 0 0 0 0 0 0 0 0 0 0 0 0 0 0 0 0 0 0 0 0 0 0 0 0 0 0 0 0 0 0 -0 -0 -0 -0 0 0 -0 0
0 0 0 0 0 0 0 0 0 0 0 0 0 0 0 0 0 0 0 0 0 0 0 0 0 0 0 0 0 0 0 0 0 0 0 0 -0 -0 -0 -0 -0 -0 -0 -0
0 0 0 0 0 0 0 0 0 0 0 0 0 0 0 0 0 0 0 0 0 0 0 0 0 0 0 0 0 0 0 0 0 0 0 -0 -0 -0 -0 0 0 -0 -0 -0
0 0 0 0 0 0 0 0 0 0 0 0 0 0 0 0 0 0 0 0 0 0 0 0 0 0 0 0 0 0 0 0 0 0 0 -0 -0 -0 -0 -0 0 0 -0 -0
0 0 0 0 0 0 0 0 0 0 0 0 0 0 0 0 0 0 0 0 0 0 0 0 0 0 0 0 0 0 0 0 0 0 0 -0 -0 -0 -0 -0 -0 0 -0 -0
0 0 0 0 0 0 0 0 0 0 0 0 0 0 0 0 0 0 0 0 0 0 0 0 0 0 0 0 0 0 0 0 0 0 -0 -0 -0 -0 -0 -0 -0 -0 0 -0
0 0 0 0 0 0 0 0 0 0 0 0 0 0 0 0 0 0 0 0 0 0 0 0 0 0 0 0 0 0 0 0 0 0 -0 -0 -0 -0 -0 -0 -0 -0 -0 -0
0 0 0 0 0 0 0 0 0 0 0 0 0 0 0 0 0 0 0 0 0 0 0 0 0 0 0 0 0 0 0 0 0 0 -0 -0 -0 -0 -0 -0 -0 -0 -0 -0
0 0 0 0 0 0 0 0 0 0 0 0 0 0 0 0 0 0 0 0 0 0 0 0 0 0 0 0 0 0 0 0 0 0 0 -0 -0 -0 -0 -0 -0 -0 -0 -0
0 0 0 0 0 0 0 0 0 0 0 0 0 0 0 0 0 0 0 0 0 0 0 0 0 0 0 0 0 0 0 0 0 0 0 -0 -0 -0 -0 0 -0 -0 0 -0
0 0 0 0 0 0 0 0 0 0 0 0 0 0 0 0 0 0 0 0 0 0 0 0 0 0 0 0 0 0 0 0 0 0 0 0 -0 -0 -0 0 -0 0 0 -0
0 0 0 0 0 0 0 0 0 0 0 0 0 0 0 0 0 0 0 0 0 0 0 0 0 0 0 0 0 0 0 0 0 0 0 0 0 -0 -0 0 0 -0 -0 0
0 0 0 0 0 0 0 0 0 0 0 0 0 0 0 0 0 0 0 0 0 0 0 0 0 0 0 0 0 0 0 0 0 0 0 0 0 0 0 0 0 0 -0 -0
0 0 0 0 0 0 0 0 0 0 0 0 0 0 0 0 0 0 0 0 0 0 0 0 0 0 0 0 0 0 0 0 0 -0 0 -0 -0 0 -0 0 0 0 0 0
0 0 0 0 0 0 0 0 0 0 0 0 0 0 0 0 0 0 0 0 0 0 0 0 0 0 0 0 0 0 0 0 0 0 -0 0 -0 -0 -0 -0 -0 -0 0 0
0 0 0 0 0 0 0 0 0 0 0 0 0 0 0 0 0 0 0 0 0 0 0 0 0 0 0 0 0 0 0 0 0 0 0 0 0 -0 -0 -0 -0 -0 -0 0
0 0 0 0 0 0 0 0 0 0 0 0 0 0 0 0 0 0 0 0 0 0 0 0 0 0 0 0 0 0 0 0 0 0 0 0 0 0 -0 -0 -0 0 -0 -0
0 0 0 0 0 0 0 0 0 0 0 0 0 0 0 0 0 0 0 0 0 0 0 0 0 0 0 0 0 0 0 0 0 0 0 0 0 0 0 0 0 0 0 0
Wind_Speed_500mb
43 40 9 30 48 25 44 54 38 77 64 60 52 26 40 72 60 51 41 29 23 20 26 37 52 62 68 74 79 86 92 96 100 100 101 105 106 104 101 90 83 77 75 71
30 19 16 40 55 47 50 61 53 71 78 79 66 21 30 51 60 51 42 32 22 18 26 42 55 63 69 74 79 87 92 96 99 101 104 106 105 103 94 84 78 72 68 67
40 7 7 28 54 52 43 49 41 45 75 62 37 16 33 52 67 59 43 30 17 18 31 44 51 58 67 73 80 86 91 95 99 103 105 106 103 98 88 82 77 71 69 64
9 10 13 22 5 14 40 47 36 47 54 31 10 12 42 58 67 46 34 20 9 18 31 40 48 56 64 70 76 84 91 95 97 100 103 103 101 94 88 85 82 77 74 68
11 18 20 52 19 18 18 60 44 56 56 35 24 23 13 47 42 36 27 14 8 19 29 39 48 56 63 70 76 82 88 93 94 96 100 99 99 96 88 85 81 77 69 69
8 11 20 32 8 17 15 33 31 44 39 18 33 11 11 53 45 36 25 13 9 18 28 39 47 54 62 69 75 81 87 90 91 91 92 96 97 92 85 81 78 70 63 59
34 22 20 23 20 27 10 28 12 35 30 40 18 15 20 58 44 33 23 14 12 18 28 39 46 53 60 66 73 79 83 86 86 86 91 93 92 88 83 79 72 68 61 61
12 9 32 36 19 24 9 9 28 32 47 42 29 40 57 54 46 36 26 19 15 19 26 36 45 53 57 62 71 76 80 81 82 84 89 91 92 88 81 72 72 70 69 68
27 22 5 75 19 76 30 30 28 44 49 53 53 53 54 51 45 35 30 23 17 19 25 32 40 50 57 60 67 73 76 78 80 83 86 89 91 85 79 71 69 74 72 71
8 42 45 54 57 40 50 39 49 45 42 58 61 50 48 47 45 40 33 24 17 17 24 30 39 45 52 59 63 68 72 74 77 81 85 88 88 80 70 67 74 73 72 77
21 43 7 53 71 59 65 51 51 43 51 68 57 51 49 54 49 44 35 25 16 17 21 27 37 43 49 54 60 65 68 70 73 76 81 86 86 77 68 63 60 62 69 71
25 31 25 23 77 87 76 78 57 57 66 67 54 50 56 55 50 45 35 25 18 15 17 25 32 40 44 48 53 59 63 66 70 73 76 81 87 93 79 61 57 51 51 63
52 43 46 44 39 79 87 83 68 66 70 74 61 54 58 58 54 46 36 27 18 13 15 23 29 35 39 43 47 52 58 62 65 67 71 77 82 89 101 100 84 70 64 69
73 47 23 46 36 66 79 78 70 69 79 80 66 62 59 57 54 46 36 26 16 12 12 19 25 31 33 37 40 45 50 56 60 62 65 70 75 80 85 95 106 106 96 80
72 79 60 65 42 63 61 64 78 89 85 72 67 65 64 61 56 47 36 25 16 11 10 14 22 25 26 31 37 43 48 52 55 56 58 63 69 75 81 88 96 101 108 110
60 68 57 68 70 61 64 73 80 86 79 73 71 67 61 56 52 44 34 24 15 10 8 13 17 17 21 26 29 34 41 45 49 53 57 60 66 73 79 84 89 96 98 100
60 33 55 56 63 68 81 77 84 83 82 78 75 69 63 60 54 46 36 25 17 11 7 11 11 14 19 23 27 33 37 40 44 47 53 59 62 67 73 78 83 86 90 83
88 104 102 93 85 78 82 84 83 78 77 77 71 67 65 63 56 46 35 25 20 10 7 8 7 9 14 18 24 28 32 35 39 43 47 52 57 62 66 71 77 81 83 87
88 84 89 80 76 86 89 89 80 70 73 72 69 68 63 57 51 44 35 29 20 12 10 9 3 6 10 14 18 22 26 30 33 38 42 45 50 56 62 66 70 73 78 83
81 87 72 66 69 82 92 82 75 69 65 65 68 68 66 62 54 44 36 25 17 15 14 10 4 4 7 11 15 19 22 26 31 34 37 42 47 51 56 60 64 67 71 74
78 68 54 67 78 82 83 78 74 68 64 64 68 68 67 61 53 46 39 29 24 20 17 13 8 4 4 8 12 16 19 23 27 31 34 38 42 46 50 54 58 62 64 65
66 59 62 62 67 67 66 63 63 63 64 66 65 63 66 62 55 45 34 27 26 24 22 17 11 6 3 5 8 13 16 20 24 26 29 34 38 42 46 49 52 55 58 59
60 70 66 63 65 63 59 58 60 59 61 63 65 68 62 55 48 46 43 36 31 29 23 18 14 9 4 3 6 9 13 16 20 24 27 31 35 37 40 44 47 49 51 54
64 62 63 61 60 59 59 59 56 55 54 57 57 55 55 56 50 43 36 34 31 29 25 21 16 10 6 3 4 7 10 13 16 20 24 27 29 32 35 37 40 43 44 46
54 58 59 63 64 60 54 54 54 55 57 58 58 55 50 44 36 39 33 34 32 29 25 21 17 12 7 4 1 3 6 9 12 16 19 21 25 27 31 34 36 38 40 41
56 59 57 53 50 50 51 54 57 61 63 65 62 57 52 44 33 34 33 32 30 27 24 22 19 13 9 7 4 4 5 8 12 14 16 18 21 24 26 29 31 33 35 36
50 47 46 46 44 46 47 51 56 63 61 58 56 51 43 38 33 34 31 29 27 25 23 22 19 16 13 11 9 10 9 10 12 14 17 18 19 21 23 25 27 29 31 32
Wind_Direction_500mb
247 260 194 263 260 206 218 238 237 261 261 265 266 235 204 208 202 199 201 219 238 277 309 323 332 334 332 333 332 330 330 329 330 331 332 333 331 329 325 323 318 312 304 301
258 244 223 259 264 254 245 251 249 254 267 266 277 241 178 186 190 190 201 217 230 277 318 333 335 332 331 331 331 330 330 332 333 334 335 333 333 330 326 327 321 313 308 304
256 119 359 273 252 239 247 243 233 245 246 263 261 194 178 181 188 191 202 204 233 310 330 333 330 329 329 331 331 330 332 334 336 338 336 335 335 332 331 331 323 317 312 307
252 103 233 258 126 186 219 247 219 246 255 242 195 199 210 201 184 189 192 202 265 315 329 326 327 328 329 331 331 333 334 337 339 338 337 336 337 334 338 333 325 317 315 314
220 213 306 291 230 178 177 273 202 228 244 247 155 133 172 179 187 185 187 202 267 321 324 324 327 327 329 332 334 335 337 339 341 341 339 339 341 340 340 329 326 319 316 315
154 206 225 259 136 145 137 274 195 209 231 146 142 180 216 182 180 182 187 196 268 310 321 322 324 328 331 333 334 338 339 341 344 342 342 344 346 342 340 332 325 319 315 322
227 242 270 218 160 149 150 261 173 188 170 158 189 202 187 174 178 186 189 215 271 304 318 321 324 328 334 335 336 339 340 343 344 346 348 350 346 347 341 333 328 328 322 317
204 212 260 141 129 188 205 152 171 177 179 176 170 152 156 170 178 185 199 217 256 294 314 321 326 330 336 338 338 339 343 344 347 352 355 353 351 351 343 340 333 331 331 326
192 211 197 179 192 204 177 168 180 182 184 186 169 166 170 176 183 194 205 225 253 295 313 321 330 333 337 340 339 342 345 347 352 357 359 360 358 353 343 343 336 336 331 326
127 244 229 206 219 205 196 187 187 187 189 188 180 181 183 186 191 198 208 222 251 288 310 327 333 339 340 340 343 345 347 351 356 359 2 4 5 0 346 343 343 336 334 331
242 266 8 230 219 216 208 201 195 195 203 190 187 191 196 193 197 201 208 219 241 281 309 329 335 342 341 345 347 349 352 356 359 3 5 7 8 8 353 348 345 338 337 337
225 226 205 242 212 211 209 205 203 202 194 192 198 200 196 197 200 203 206 218 239 275 310 329 338 342 345 350 352 352 355 359 4 5 8 10 10 11 20 4 358 354 347 346
238 227 218 222 232 211 206 210 213 210 204 202 202 206 198 199 201 201 204 212 230 264 311 330 340 344 349 353 357 357 359 3 7 8 11 13 15 16 12 21 25 17 5 0
226 205 179 190 192 199 206 213 214 211 213 203 205 198 201 202 198 197 199 208 222 263 310 332 343 347 352 357 356 360 4 6 10 11 13 17 18 20 21 20 17 19 27 9
210 209 214 208 193 187 193 206 209 208 200 201 201 198 198 197 197 195 196 200 219 258 303 336 345 347 355 3 0 1 7 9 12 14 16 19 21 23 26 27 26 25 24 24
180 196 198 186 181 186 195 203 201 197 197 198 196 197 199 194 193 193 193 197 214 244 293 329 337 348 5 7 3 6 9 10 12 15 18 20 23 25 26 29 31 30 29 19
159 155 167 179 192 194 197 203 202 197 197 199 199 197 193 190 191 192 190 192 213 232 285 317 335 360 13 6 7 11 11 11 14 17 21 23 24 27 27 28 30 34 34 30
203 197 189 193 197 197 199 201 193 200 201 201 198 195 194 194 196 189 186 194 209 218 269 296 323 15 19 6 11 12 12 13 15 19 22 25 28 28 29 29 29 30 35 38
200 195 193 204 208 198 200 191 195 200 201 200 197 197 196 193 189 187 189 197 200 213 242 251 265 36 19 14 13 12 16 16 18 21 22 25 27 29 30 30 30 29 31 34
186 190 197 204 200 198 191 195 200 200 199 197 196 193 188 187 187 188 190 192 191 209 226 227 200 70 22 21 20 15 17 19 21 20 21 24 26 27 30 31 31 32 31 33
190 190 200 198 194 197 203 205 202 198 196 197 196 193 190 186 185 187 189 191 196 203 209 201 175 125 43 32 26 28 17 21 22 20 19 22 24 26 27 28 30 30 32 34
181 181 193 189 186 188 195 199 197 195 194 190 190 190 185 183 183 181 183 194 199 196 195 190 165 151 100 53 36 31 22 19 22 22 20 21 23 24 24 25 26 28 30 32
186 188 185 182 183 184 183 187 189 193 192 190 188 185 184 185 186 186 188 192 191 190 187 175 164 167 141 87 47 29 25 20 19 19 21 20 20 21 22 22 22 23 26 28
179 178 182 181 181 180 180 179 182 182 185 181 180 181 181 178 180 185 191 189 187 182 179 172 174 178 152 118 51 22 15 14 17 18 16 17 17 16 17 19 20 20 22 25
171 173 173 175 177 176 177 175 172 169 170 168 169 172 177 181 191 187 187 184 180 179 177 177 184 183 177 180 140 355 350 360 7 8 11 11 12 14 13 13 15 17 19 20
157 161 166 170 172 170 170 169 168 164 167 167 168 172 174 179 181 183 181 179 180 183 182 184 193 195 203 215 231 273 307 332 342 348 351 357 1 3 5 6 8 10 13 15
143 148 150 150 155 162 164 165 168 167 171 172 171 170 175 179 180 180 181 183 187 189 192 196 197 208 221 231 248 266 283 302 312 319 325 332 338 344 348 351 354 358 2 5
Wind_Speed_850mb
43 40 9 30 48 25 44 54 38 77 64 60 52 26 40 72 60 51 41 29 23 20 26 37 52 62 68 74 79 86 92 96 100 100 101 105 106 104 101 90 83 77 75 71
30 19 16 40 55 47 50 61 53 71 78 79 66 21 30 51 60 51 42 32 22 18 26 42 55 63 69 74 79 87 92 96 99 101 104 106 105 103 94 84 78 72 68 67
40 7 7 28 54 52 43 49 41 45 75 62 37 16 33 52 67 59 43 30 17 18 31 44 51 58 67 73 80 86 91 95 99 103 105 106 103 98 88 82 77 71 69 64
9 10 13 22 5 14 40 47 36 47 54 31 10 12 42 58 67 46 34 20 9 18 31 40 48 56 64 70 76 84 91 95 97 100 103 103 101 94 88 85 82 77 74 68
11 18 20 52 19 18 18 60 44 56 56 35 24 23 13 47 42 36 27 14 8 19 29 39 48 56 63 70 76 82 88 93 94 96 100 99 99 96 88 85 81 77 69 69
8 11 20 32 8 17 15 33 31 44 39 18 33 11 11 53 45 36 25 13 9 18 28 39 47 54 62 69 75 81 87 90 91 91 92 96 97 92 85 81 78 70 63 59
34 22 20 23 20 27 10 28 12 35 30 40 18 15 20 58 44 33 23 14 12 18 28 39 46 53 60 66 73 79 83 86 86 86 91 93 92 88 83 79 72 68 61 61
12 9 32 36 19 24 9 9 28 32 47 42 29 40 57 54 46 36 26 19 15 19 26 36 45 53 57 62 71 76 80 81 82 84 89 91 92 88 81 72 72 70 69 68
27 22 5 75 19 76 30 30 28 44 49 53 53 53 54 51 45 35 30 23 17 19 25 32 40 50 57 60 67 73 76 78 80 83 86 89 91 85 79 71 69 74 72 71
8 42 45 54 57 40 50 39 49 45 42 58 61 50 48 47 45 40 33 24 17 17 24 30 39 45 52 59 63 68 72 74 77 81 85 88 88 80 70 67 74 73 72 77
21 43 7 53 71 59 65 51 51 43 51 68 57 51 49 54 49 44 35 25 16 17 21 27 37 43 49 54 60 65 68 70 73 76 81 86 86 77 68 63 60 62 69 71
25 31 25 23 77 87 76 78 57 57 66 67 54 50 56 55 50 45 35 25 18 15 17 25 32 40 44 48 53 59 63 66 70 73 76 81 87 93 79 61 57 51 51 63
52 43 46 44 39 79 87 83 68 66 70 74 61 54 58 58 54 46 36 27 18 13 15 23 29 35 39 43 47 52 58 62 65 67 71 77 82 89 101 100 84 70 64 69
73 47 23 46 36 66 79 78 70 69 79 80 66 62 59 57 54 46 36 26 16 12 12 19 25 31 33 37 40 45 50 56 60 62 65 70 75 80 85 95 106 106 96 80
72 79 60 65 42 63 61 64 78 89 85 72 67 65 64 61 56 47 36 25 16 11 10 14 22 25 26 31 37 43 48 52 55 56 58 63 69 75 81 88 96 101 108 110
60 68 57 68 70 61 64 73 80 86 79 73 71 67 61 56 52 44 34 24 15 10 8 13 17 17 21 26 29 34 41 45 49 53 57 60 66 73 79 84 89 96 98 100
60 33 55 56 63 68 81 77 84 83 82 78 75 69 63 60 54 46 36 25 17 11 7 11 11 14 19 23 27 33 37 40 44 47 53 59 62 67 73 78 83 86 90 83
88 104 102 93 85 78 82 84 83 78 77 77 71 67 65 63 56 46 35 25 20 10 7 8 7 9 14 18 24 28 32 35 39 43 47 52 57 62 66 71 77 81 83 87
88 84 89 80 76 86 89 89 80 70 73 72 69 68 63 57 51 44 35 29 20 12 10 9 3 6 10 14 18 22 26 30 33 38 42 45 50 56 62 66 70 73 78 83
81 87 72 66 69 82 92 82 75 69 65 65 68 68 66 62 54 44 36 25 17 15 14 10 4 4 7 11 15 19 22 26 31 34 37 42 47 51 56 60 64 67 71 74
78 68 54 67 78 82 83 78 74 68 64 64 68 68 67 61 53 46 39 29 24 20 17 13 8 4 4 8 12 16 19 23 27 31 34 38 42 46 50 54 58 62 64 65
66 59 62 62 67 67 66 63 63 63 64 66 65 63 66 62 55 45 34 27 26 24 22 17 11 6 3 5 8 13 16 20 24 26 29 34 38 42 46 49 52 55 58 59
60 70 66 63 65 63 59 58 60 59 61 63 65 68 62 55 48 46 43 36 31 29 23 18 14 9 4 3 6 9 13 16 20 24 27 31 35 37 40 44 47 49 51 54
64 62 63 61 60 59 59 59 56 55 54 57 57 55 55 56 50 43 36 34 31 29 25 21 16 10 6 3 4 7 10 13 16 20 24 27 29 32 35 37 40 43 44 46
54 58 59 63 64 60 54 54 54 55 57 58 58 55 50 44 36 39 33 34 32 29 25 21 17 12 7 4 1 3 6 9 12 16 19 21 25 27 31 34 36 38 40 41
56 59 57 53 50 50 51 54 57 61 63 65 62 57 52 44 33 34 33 32 30 27 24 22 19 13 9 7 4 4 5 8 12 14 16 18 21 24 26 29 31 33 35 36
50 47 46 46 44 46 47 51 56 63 61 58 56 51 43 38 33 34 31 29 27 25 23 22 19 16 13 11 9 10 9 10 12 14 17 18 19 21 23 25 27 29 31 32
Wind_Direction_850mb
247 260 194 263 260 206 218 238 237 261 261 265 266 235 204 208 202 199 201 219 238 277 309 323 332 334 332 333 332 330 330 329 330 331 332 333 331 329 325 323 318 312 304 301
258 244 223 259 264 254 245 251 249 254 267 266 277 241 178 186 190 190 201 217 230 277 318 333 335 332 331 331 331 330 330 332 333 334 335 333 333 330 326 327 321 313 308 304
256 119 359 273 252 239 247 243 233 245 246 263 261 194 178 181 188 191 202 204 233 310 330 333 330 329 329 331 331 330 332 334 336 338 336 335 335 332 331 331 323 317 312 307
252 103 233 258 126 186 219 247 219 246 255 242 195 199 210 201 184 189 192 202 265 315 329 326 327 328 329 331 331 333 334 337 339 338 337 336 337 334 338 333 325 317 315 314
220 213 306 291 230 178 177 273 202 228 244 247 155 133 172 179 187 185 187 202 267 321 324 324 327 327 329 332 334 335 337 339 341 341 339 339 341 340 340 329 326 319 316 315
154 206 225 259 136 145 137 274 195 209 231 146 142 180 216 182 180 182 187 196 268 310 321 322 324 328 331 333 334 338 339 341 344 342 342 344 346 342 340 332 325 319 315 322
227 242 270 218 160 149 150 261 173 188 170 158 189 202 187 174 178 186 189 215 271 304 318 321 324 328 334 335 336 339 340 343 344 346 348 350 346 347 341 333 328 328 322 317
204 212 260 141 129 188 205 152 171 177 179 176 170 152 156 170 178 185 199 217 256 294 314 321 326 330 336 338 338 339 343 344 347 352 355 353 351 351 343 340 333 331 331 326
192 211 197 179 192 204 177 168 180 182 184 186 169 166 170 176 183 194 205 225 253 295 313 321 330 333 337 340 339 342 345 347 352 357 359 360 358 353 343 343 336 336 331 326
127 244 229 206 219 205 196 187 187 187 189 188 180 181 183 186 191 198 208 222 251 288 310 327 333 339 340 340 343 345 347 351 356 359 2 4 5 0 346 343 343 336 334 331
242 266 8 230 219 216 208 201 195 195 203 190 187 191 196 193 197 201 208 219 241 281 309 329 335 342 341 345 347 349 352 356 359 3 5 7 8 8 353 348 345 338 337 337
225 226 205 242 212 211 209 205 203 202 194 192 198 200 196 197 200 203 206 218 239 275 310 329 338 342 345 350 352 352 355 359 4 5 8 10 10 11 20 4 358 354 347 346
238 227 218 222 232 211 206 210 213 210 204 202 202 206 198 199 201 201 204 212 230 264 311 330 340 344 349 353 357 357 359 3 7 8 11 13 15 16 12 21 25 17 5 0
226 205 179 190 192 199 206 213 214 211 213 203 205 198 201 202 198 197 199 208 222 263 310 332 343 347 352 357 356 360 4 6 10 11 13 17 18 20 21 20 17 19 27 9
210 209 214 208 193 187 193 206 209 208 200 201 201 198 198 197 197 195 196 200 219 258 303 336 345 347 355 3 0 1 7 9 12 14 16 19 21 23 26 27 26 25 24 24
180 196 198 186 181 186 195 203 201 197 197 198 196 197 199 194 193 193 193 197 214 244 293 329 337 348 5 7 3 6 9 10 12 15 18 20 23 25 26 29 31 30 29 19
159 155 167 179 192 194 197 203 202 197 197 199 199 197 193 190 191 192 190 192 213 232 285 317 335 360 13 6 7 11 11 11 14 17 21 23 24 27 27 28 30 34 34 30
203 197 189 193 197 197 199 201 193 200 201 201 198 195 194 194 196 189 186 194 209 218 269 296 323 15 19 6 11 12 12 13 15 19 22 25 28 28 29 29 29 30 35 38
200 195 193 204 208 198 200 191 195 200 201 200 197 197 196 193 189 187 189 197 200 213 242 251 265 36 19 14 13 12 16 16 18 21 22 25 27 29 30 30 30 29 31 34
186 190 197 204 200 198 191 195 200 200 199 197 196 193 188 187 187 188 190 192 191 209 226 227 200 70 22 21 20 15 17 19 21 20 21 24 26 27 30 31 31 32 31 33
190 190 200 198 194 197 203 205 202 198 196 197 196 193 190 186 185 187 189 191 196 203 209 201 175 125 43 32 26 28 17 21 22 20 19 22 24 26 27 28 30 30 32 34
181 181 193 189 186 188 195 199 197 195 194 190 190 190 185 183 183 181 183 194 199 196 195 190 165 151 100 53 36 31 22 19 22 22 20 21 23 24 24 25 26 28 30 32
186 188 185 182 183 184 183 187 189 193 192 190 188 185 184 185 186 186 188 192 191 190 187 175 164 167 141 87 47 29 25 20 19 19 21 20 20 21 22 22 22 23 26 28
179 178 182 181 181 180 180 179 182 182 185 181 180 181 181 178 180 185 191 189 187 182 179 172 174 178 152 118 51 22 15 14 17 18 16 17 17 16 17 19 20 20 22 25
171 173 173 175 177 176 177 175 172 169 170 168 169 172 177 181 191 187 187 184 180 179 177 177 184 183 177 180 140 355 350 360 7 8 11 11 12 14 13 13 15 17 19 20
157 161 166 170 172 170 170 169 168 164 167 167 168 172 174 179 181 183 181 179 180 183 182 184 193 195 203 215 231 273 307 332 342 348 351 357 1 3 5 6 8 10 13 15
143 148 150 150 155 162 164 165 168 167 171 172 171 170 175 179 180 180 181 183 187 189 192 196 197 208 221 231 248 266 283 302 312 319 325 332 338 344 348 351 354 358 2 5